Flag for Canada Weather for the Past 2 Weeks in Conception Bay South, Newfoundland and Labrador, Canada

Now
39 °F

Overcast.


Feels Like: 32 °F
Forecast: 35 / 42 °F
Wind: 12 mph from North

Location: St. John's

Current Time: May 4, 2016 at 11:34:56 PM

Latest Report: May 4, 2016 at 10:30 PM


Visibility: 15 mi

Pressure: 29.95 "Hg

Humidity: 87%

Dew Point: 36 °F

Location of Conception Bay SouthLocation

Historic Weather in Conception Bay South — Graph

°F

Conception Bay South Temperature Yesterday

Maximum temperature yesterday: 54 °F (at 11:30 AM)
Minimum temperature yesterday: 32 °F (at 3:30 AM)
Average temperature yesterday: 39 °F

High & Low Weather Summary for the Past Weeks

 TemperatureHumidityPressure
High54 °F (May 3, 11:30 AM)100% (Apr 20, 12:30 PM)30.36 "Hg (Apr 20, 12:30 PM)
Low25 °F (Apr 26, 5:30 AM)41% (Apr 26, 2:24 PM)29.08 "Hg (Apr 20, 7:30 PM)
Average35 °F80%29.82 "Hg
* Reported Apr 19 10:30 PM — May 4 10:30 PM, Conception Bay South, Weather by CustomWeather, © 2016

Note: Actual official high and low records may vary slightly from our data, if they occured in-between our weather recording intervals... More about our weather records

Advertising

Conception Bay South Weather History for the Previous 24 Hours

Scroll right to see more
 ConditionsComfort  
Time TempWeatherWind HumidityBarometerVisibility
10:30 PM
Wed, May 4
39 °FOvercast.12 mph87%29.95 "Hg15 mi
9:30 PM41 °FOvercast.9 mph87%29.93 "Hg15 mi
8:30 PM43 °FOvercast.10 mph87%29.90 "Hg15 mi
7:30 PM45 °FOvercast.9 mph81%29.86 "Hg15 mi
6:30 PM41 °FOvercast.5 mph87%29.85 "Hg15 mi
5:30 PM45 °FOvercast.6 mph81%29.83 "Hg15 mi
4:30 PM46 °FPartly sunny.9 mph82%29.80 "Hg15 mi
3:30 PM54 °FBroken clouds.12 mph67%29.79 "Hg15 mi
2:30 PM52 °FScattered clouds.10 mph67%29.78 "Hg15 mi
1:30 PM52 °FPartly sunny.13 mph72%29.77 "Hg15 mi
1:20 PM52 °FBroken clouds.14 mph72%29.77 "Hg15 mi
12:30 PM48 °FPartly sunny.17 mph76%29.77 "Hg15 mi
11:30 AM43 °FLow clouds.13 mph93%29.77 "Hg15 mi
10:30 AM41 °FLow clouds.14 mph93%29.77 "Hg15 mi
9:30 AM39 °FLow clouds.13 mph100%29.77 "Hg12 mi
8:30 AM39 °FLow clouds.8 mph93%29.77 "Hg8 mi
7:30 AM39 °FFog.13 mph93%29.77 "Hg5 mi
6:30 AM39 °FLight rain. Fog.6 mph93%29.76 "Hg1 mi
5:30 AM37 °FDrizzle. Fog.7 mph100%29.75 "Hg1 mi
4:30 AM37 °FFog.5 mph100%29.76 "Hg5 mi
3:30 AM36 °FDrizzle. Fog.3 mph100%29.77 "Hg1 mi
2:30 AM36 °FDrizzle. Fog.10 mph93%29.78 "Hg1 mi
1:30 AM34 °FDrizzle. Fog.8 mph100%29.82 "Hg1 mi
12:30 AM34 °FDrizzle. Fog.26 mph93%29.86 "Hg1 mi
11:30 PM
Tue, May 3
34 °FLight rain. Fog.21 mph93%29.90 "Hg1 mi
Weather by CustomWeather, © 2016

See weather overviewHow to use our weather pages